N5UKZ-WX Weather Reports


time (UTC)temp
F
wind
direction
speed
knots
gust
knots
rain 1hr
in
rain 24hr
in
rain mn
in
humidity
%
barometer
mb
20260504230703 79 149 0.0 7.0 0.00 0.00 0.00 45 1012.9
20260504225203 81 188 2.6 7.8 0.00 0.00 0.00 45 1012.9
20260504223703 82 224 1.7 8.7 0.00 0.00 0.00 44 1013.2
20260504222202 83 194 1.7 8.7 0.00 0.00 0.00 43 1013.2
20260504220702 85 190 0.9 9.6 0.00 0.00 0.00 43 1013.2
20260504215202 85 243 3.5 7.8 0.00 0.00 0.00 42 1013.6
20260504213702 85 107 2.6 8.7 0.00 0.00 0.00 44 1013.6
20260504212202 85 150 2.6 9.6 0.00 0.00 0.00 43 1013.6
20260504210702 86 187 0.0 7.8 0.00 0.00 0.00 43 1013.9
20260504205201 85 138 0.9 7.0 0.00 0.00 0.00 44 1014.6
20260504203701 86 155 3.5 7.0 0.00 0.00 0.00 43 1014.6
20260504202201 86 183 1.7 9.6 0.00 0.00 0.00 43 1014.9
20260504200701 86 236 3.5 10.4 0.00 0.00 0.00 43 1014.9
20260504195201 86 235 3.5 8.7 0.00 0.00 0.00 44 1015.3
20260504193701 85 128 0.0 10.4 0.00 0.00 0.00 44 1015.6
20260504192200 85 124 1.7 5.2 0.00 0.00 0.00 45 1016.0
20260504190700 84 229 2.6 9.6 0.00 0.00 0.00 45 1016.0
20260504185200 85 148 3.5 7.8 0.00 0.00 0.00 44 1016.3
20260504183659 85 197 4.3 7.8 0.00 0.00 0.00 46 1016.3
20260504182159 83 243 5.2 7.8 0.00 0.00 0.00 46 1016.6
20260504180659 83 163 3.5 7.8 0.00 0.00 0.00 47 1017.0
20260504175159 81 205 1.7 8.7 0.00 0.00 0.00 48 1017.0
20260504173659 82 118 2.6 7.8 0.00 0.00 0.00 50 1017.3
20260504172158 82 210 6.1 9.6 0.00 0.00 0.00 51 1017.3
20260504170658 81 252 5.2 9.6 0.00 0.00 0.00 51 1017.3
20260504150657 70 198 0.9 6.1 0.00 0.00 0.00 76 1018.3
20260504140656 64 205 1.7 4.3 0.00 0.00 0.00 89 1018.3
20260504130656 57 45 0.0 0.0 0.00 0.00 0.00 96 1018.3
20260504110654 55 66 0.0 0.0 0.00 0.00 0.00 95 1017.7
20260504080652 59 211 0.0 0.0 0.00 0.00 0.00 87 1017.7
20260504050650 61 165 0.0 0.9 0.00 0.00 0.00 81 1018.7
20260504045149 61 225 0.0 0.0 0.00 0.00 0.00 80 1018.7
20260504043649 61 225 0.0 1.7 0.00 0.00 0.00 79 1019.0
20260504042149 61 224 1.7 2.6 0.00 0.00 0.00 79 1019.0
20260504040649 61 169 0.0 0.0 0.00 0.00 0.00 78 1019.0
20260504035149 61 169 0.0 0.0 0.00 0.00 0.00 76 1019.0
20260504033648 61 169 0.0 0.0 0.00 0.00 0.00 73 1019.0
20260504032148 62 169 0.0 0.0 0.00 0.00 0.00 73 1019.0
20260504030648 64 169 0.0 0.9 0.00 0.00 0.00 71 1019.0
20260504023648 65 205 0.0 0.0 0.00 0.00 0.00 68 1019.0
20260504022148 65 205 0.0 0.0 0.00 0.00 0.00 67 1019.0
20260504020647 67 205 0.0 0.0 0.00 0.00 0.00 65 1019.0
20260504015147 65 205 0.0 0.0 0.00 0.00 0.00 62 1019.0
20260504013647 67 228 0.0 0.0 0.00 0.00 0.00 61 1018.7
20260504012147 70 228 0.0 0.0 0.00 0.00 0.00 59 1018.3
20260504010647 70 228 0.0 0.0 0.00 0.00 0.00 56 1018.3
20260504005147 71 165 0.0 0.0 0.00 0.00 0.00 54 1018.0
20260504003646 73 122 0.9 3.5 0.00 0.00 0.00 53 1018.0
20260504002146 74 158 0.0 5.2 0.00 0.00 0.00 52 1018.0
20260504000646 76 136 0.0 0.0 0.00 0.00 0.00 49 1018.0
20260503235146 76 146 1.7 3.5 0.00 0.00 0.00 49 1018.0
20260503233646 77 163 2.6 6.1 0.00 0.00 0.00 48 1018.0